Regional Weather Roundup
Issued by NWS

Current Version | Previous Version | Text Only | Print | Product List | Glossary On
Versions: 1 2 3 4 5 6 7 8 9 10 11 12 13 14 15 16 17 18 19 20 21 22 23 24 25 26 27 28 29 30 31 32 33 34 35 36 37 38 39 40 41 42 43 44 45 46 47 48 49 50
000
ASUS45 KPSR 011410
RWRAZ

ARIZONA REGIONAL HOURLY WEATHER ROUNDUP
NATIONAL WEATHER SERVICE PHOENIX AZ
700 AM MST MON SEP 01 2014

NOTE: FAIR INDICATES FEW OR NO CLOUDS BELOW 12,000 FEET WITH NO
SIGNIFICANT WEATHER AND/OR OBSTRUCTIONS TO VISIBILITY.

AZZ001>003-036-011500-
NORTHWEST ARIZONA

CITY           SKY/WX    TMP DP  RH WIND       PRES   REMARKS
BULLHEAD CITY  CLEAR     82  46  28 CALM      29.77R
KINGMAN        CLEAR     73  46  38 SE9       29.97R
$$

AZZ004>008-015-016-018-011500-
NORTH CENTRAL ARIZONA

CITY           SKY/WX    TMP DP  RH WIND       PRES   REMARKS
GRAND CANYON   SUNNY     52  41  66 VRB5      30.24R
WILLIAMS       SUNNY     54  43  66 SE7       30.29R
PRESCOTT       SUNNY     62  47  57 CALM      30.11R
FLAGSTAFF      SUNNY     53  44  71 CALM      30.26R
PAYSON         SUNNY     63  43  48 CALM      30.15R
PAGE           SUNNY     75  33  21 NW3       30.02R
$$

AZZ009>014-017-011500-
NORTHEAST ARIZONA

CITY           SKY/WX    TMP DP  RH WIND       PRES   REMARKS
WINSLOW        SUNNY     62  46  55 SE6       30.11R
SAINT JOHNS    SUNNY     62  43  49 CALM      30.17R
WINDOW ROCK    SUNNY     65  39  38 CALM      30.22R
SHOW LOW       SUNNY     61  39  44 S7        30.24S
$$

AZZ023-011500-
GREATER PHOENIX AREA

CITY           SKY/WX    TMP DP  RH WIND       PRES   REMARKS
PHOENIX        MOSUNNY   81  46  29 E10       29.82R
BUCKEYE          N/A     81  46  30 E12       29.82R
GLENDALE       MOSUNNY   81  48  32 CALM      29.84R
LUKE AFB       NOT AVBL
DEER VALLEY    SUNNY     80  43  26 VRB3      29.84R
SCOTTSDALE     SUNNY     81  47  30 CALM      29.86R
MESA-FALCON    SUNNY     79  45  29 N6        29.85R
MESA-GATEWAY   MOSUNNY   79  45  29 SE7       29.87R
CHANDLER       MOSUNNY   79  50  36 E6        29.85R
$$

AZZ027-028-011500-
SOUTHWEST MARICOPA COUNTY AND PINAL COUNTY

CITY           SKY/WX    TMP DP  RH WIND       PRES   REMARKS
CASA GRANDE    SUNNY     77  45  31 CALM      29.87R
$$

AZZ503-504-507>509-011500-
SOUTHEAST ARIZONA

CITY           SKY/WX    TMP DP  RH WIND       PRES   REMARKS
TUCSON         SUNNY     74  49  41 SE12      29.98R
DAVIS-MONTHAN  SUNNY     73  49  41 SE8       29.97R
RYAN FIELD       N/A     70  48  46 CALM      29.96R
NOGALES        SUNNY     63  50  62 CALM      30.06R
SIERRA VISTA   SUNNY     71  51  49 CALM      30.11R
DOUGLAS        SUNNY     62  52  69 CALM      30.09R
SAFFORD        SUNNY     70  42  36 SE6       29.99R
$$

AZZ020-021-025-026-031-011500-
SOUTHWEST ARIZONA

CITY           SKY/WX    TMP DP  RH WIND       PRES   REMARKS
YUMA           CLEAR     86  65  49 SE9       29.72R
$$

CAZ031-033-041-043-047-048-061-011500-
SOUTHERN CALIFORNIA

CITY           SKY/WX    TMP DP  RH WIND       PRES   REMARKS
DOWNTOWN L.A.  CLOUDY    71  64  78 CALM      29.82R
L.A. AIRPORT   CLOUDY    71  63  75 VRB3      29.83R
SAN DIEGO      MOCLDY    69  62  78 SE7       29.83S
BURBANK        PTCLDY    68  63  84 CALM      29.83R
ONTARIO        PTCLDY    66  63  90 CALM      29.84R FOG
RIVERSIDE      CLEAR     65  61  87 CALM      29.84R
PALM SPRINGS   CLEAR     81  51  35 N3        29.75R
IMPERIAL       CLEAR     79  60  52 SE6       29.70R
BLYTHE         CLEAR     80  63  55 CALM      29.73R
NEEDLES        CLEAR     87  47  24 W8        29.77R
$$

NVZ020-UTZ003-011500-
SOUTHERN NEVADA-UTAH

CITY           SKY/WX    TMP DP  RH WIND       PRES   REMARKS
LAS VEGAS      CLEAR     79  37  22 SW7       29.81R
SALT LAKE CITY SUNNY     60  42  51 SE5       30.05R
$$

NMZ009-TXZ055-011500-
NEW MEXICO-WEST TEXAS

CITY           SKY/WX    TMP DP  RH WIND       PRES   REMARKS
ALBUQUERQUE    MOSUNNY   67  41  38 SE8       30.13R
EL PASO        MOSUNNY   75  47  36 E3        30.01R
$$


........................KEY........................
SKY/WX - SKY CONDITION/WEATHER
TMP    - TEMPERATURE IN FAHRENHEIT
DP     - DEW POINT IN FAHRENHEIT
RH     - RELATIVE HUMIDITY IN PERCENT
WIND   - DIRECTION AND SPEED IN MILES PER HOUR (MPH)
VRB    - VARIABLE WIND DIRECTION
PRES   - MEAN SEA LEVEL PRESSURE IN INCHES OF MERCURY
         F - FALLING PRESSURE   R - RISING PRESSURE
         S - STEADY PRESSURE
VSB    - VISIBILITY IN MILES
HX     - HEAT INDEX IN FAHRENHEIT
WCI    - WIND CHILL INDEX IN FAHRENHEIT
TC     - TEMPERATURE IN CELSIUS WHICH IS ALSO KNOWN AS
         TEMPERATURE IN CENTIGRADE
AFB    - AIR FORCE BASE
         LUKE AFB IS LUKE AIR FORCE BASE
         DAVIS-MONTHAN IS DAVIS-MONTHAN AIR FORCE BASE
NAS    - NAVAL AIR STATION
         EL CENTRO NAS IS EL CENTRO NAVAL AIR STATION
N/A    - NOT AVAILABLE



USA.gov is the U.S. government's official web portal to all federal, state and local government web resources and services.